[[{"header":{"parameterUnit":"m.s-1","parameterCategory":1,"la1":30.2991,"la2":30.254,"lo1":-89.0895,"lo2":-89.0444,"dy":0.0017,"dx":0.0017,"nx":28,"ny":28,"refTime":"2023-04-23T21:00:00:Z","depth":0,"parameterNumber":2,"parameterNumberName":"U-component_of_WINDS"},"data":[0,0,0,0,0,0,0,0,0,0,0,0,0,0,0,0,0,0,0,0,0,0,0,0,0,0,0,0,0,0,0,0,0,0,0,0,0,0,0,0,0,0,0,0,0,0,0,0,0,0,0,0,0,0,0,0,0,0,-1.1688,-1.1688,0,-1.1678,-1.1678,-1.1678,-1.1626,-1.1625,-1.1624,-1.1623,-1.1614,-1.1615,-1.1616,0,0,0,0,0,0,0,0,0,0,0,0,0,-1.1663,-1.1664,-1.1688,-1.1688,-1.1688,-1.1678,-1.1678,-1.1678,-1.1627,-1.1625,-1.1624,-1.1622,-1.1614,-1.1615,-1.1616,0,0,0,0,0,0,0,0,0,0,0,0,0,-1.1666,-1.1664,-1.1688,-1.1661,-1.1659,-1.1678,-1.1678,-1.1678,-1.1627,-1.1625,-1.1623,-1.1621,-1.1614,-1.1615,-1.1616,-1.1662,0,0,-1.1621,-1.1621,0,0,0,0,0,0,0,0,-1.1666,-1.1667,-1.1665,-1.1663,-1.166,-1.1652,-1.1666,-1.1673,-1.1627,-1.1639,-1.1623,-1.1621,-1.1628,-1.1628,-1.1631,-1.1662,-1.1661,-1.1621,-1.1622,-1.1622,-1.1623,0,0,0,0,0,0,0,-1.1666,-1.1667,-1.1684,-1.1665,-1.1662,-1.165,-1.1648,-1.1667,-1.1644,-1.1638,-1.1634,-1.1633,-1.1627,-1.163,-1.163,-1.1661,-1.1621,-1.1622,-1.1623,-1.1623,-1.1729,-1.1731,0,0,0,0,0,0,-1.1669,-1.1667,-1.1685,-1.1684,-1.1658,-1.1651,-1.165,-1.1656,-1.1644,-1.164,-1.1635,-1.1631,-1.1628,-1.1629,-1.163,-1.1683,-1.1622,-1.1624,-1.1624,-1.1727,-1.1729,-1.1731,0,0,0,0,0,0,-1.1669,-1.1671,-1.1685,-1.1674,-1.1675,-1.1654,-1.1662,-1.1657,-1.166,-1.1642,-1.1638,-1.1642,-1.1627,-1.1628,-1.1654,-1.1682,-1.1624,-1.1625,-1.1725,-1.1728,-1.173,-1.179,0,0,0,0,0,0,-1.1668,-1.1671,-1.1689,-1.1675,-1.1676,-1.171,-1.1663,-1.1658,-1.1662,-1.1657,-1.1647,-1.1644,-1.1625,-1.1652,-1.1656,-1.1683,-1.1627,-1.1722,-1.1726,-1.1729,-1.1786,-1.1795,-1.1803,0,0,0,0,0,-1.1668,-1.1706,-1.169,-1.1692,-1.1697,-1.1712,-1.1712,-1.1689,-1.1665,-1.1682,-1.167,-1.1644,-1.1678,-1.1656,-1.1659,-1.1687,-1.172,-1.1725,-1.1729,-1.1782,-1.1793,-1.1803,0,0,0,0,0,0,-1.1725,-1.1704,-1.1686,-1.1721,-1.1718,-1.1703,-1.1724,-1.1702,-1.1707,-1.1702,-1.1673,-1.1671,-1.1703,-1.1697,-1.1672,-1.173,-1.1695,-1.17,-1.1734,-1.1744,-1.1752,-1.1755,-1.1628,0,0,0,0,0,-1.1741,-1.1754,-1.1736,-1.1769,-1.1768,-1.1746,-1.1752,-1.1734,-1.1731,-1.173,-1.172,-1.1718,-1.1727,-1.1735,-1.1743,-1.1783,-1.1781,-1.1804,-1.1812,-1.182,-1.1826,-1.1847,-1.1858,-1.1746,-1.1746,-1.1746,0,0,-1.1776,-1.1766,-1.1777,-1.178,-1.1776,-1.1791,-1.1746,-1.1764,-1.1775,-1.1732,-1.1757,-1.1749,-1.1745,-1.1779,-1.1793,-1.1775,-1.1855,-1.1825,-1.1831,-1.1833,-1.1853,-1.1864,-1.1873,-1.1749,-1.1748,-1.1748,0,0,-1.1848,-1.1841,-1.1868,-1.1865,-1.1858,-1.1843,-1.1849,-1.1837,-1.183,-1.1854,-1.1823,-1.1835,-1.1852,-1.1851,-1.1852,-1.192,-1.1898,-1.1923,-1.1969,-1.1991,-1.2,-1.2007,-1.2034,-1.2043,-1.1929,-1.1929,-1.1929,0,-1.1893,-1.1914,-1.1885,-1.1905,-1.1908,-1.1868,-1.1896,-1.1893,-1.189,-1.1893,-1.1872,-1.1893,-1.1887,-1.1921,-1.1937,-1.1939,-1.1946,-1.1927,-1.2,-1.2008,-1.2015,-1.204,-1.2049,-1.1932,-1.1932,-1.1932,-1.1931,0,-1.197,-1.1984,-1.2007,-1.2004,-1.2009,-1.2032,-1.2008,-1.2016,-1.1996,-1.1984,-1.2009,-1.1999,-1.2005,-1.2011,-1.1993,-1.2042,-1.2031,-1.2005,-1.197,-1.2029,-1.2052,-1.2061,-1.1937,-1.1936,-1.1935,-1.1934,0,0,-1.2081,-1.206,-1.207,-1.2068,-1.2057,-1.2068,-1.2088,-1.2093,-1.2101,-1.2099,-1.2118,-1.2132,-1.2108,-1.211,-1.209,-1.2109,-1.2166,-1.2081,-1.2081,-1.2099,-1.2221,-1.2242,-1.2254,-1.2149,-1.215,-1.2151,-1.2222,0,-1.2152,-1.2187,-1.2161,-1.2201,-1.2215,-1.2176,-1.2194,-1.2189,-1.2177,-1.2187,-1.2173,-1.2185,-1.2151,-1.2152,-1.2168,-1.2155,-1.219,-1.2149,-1.2167,-1.2168,-1.2173,-1.2265,-1.2288,-1.2356,-1.223,-1.2232,-1.2233,0,-1.224,-1.2241,-1.2283,-1.2268,-1.2273,-1.229,-1.2292,-1.2301,-1.2294,-1.2284,-1.2285,-1.226,-1.228,-1.2242,-1.227,-1.2243,-1.2247,-1.2242,-1.2244,-1.2248,-1.2207,-1.2274,-1.2376,-1.2388,-1.2246,-1.2245,-1.2244,0,-1.232,-1.2332,-1.2358,-1.2357,-1.234,-1.2353,-1.2347,-1.2338,-1.2342,-1.2344,-1.2346,-1.235,-1.2353,-1.2356,-1.2333,-1.2307,-1.2365,-1.2324,-1.2358,-1.2359,-1.2375,-1.2375,-1.2483,-1.2373,-1.2373,-1.2373,-1.2373,0,-1.2404,-1.2432,-1.2394,-1.2411,-1.244,-1.2409,-1.2439,-1.2428,-1.242,-1.2435,-1.24,-1.2414,-1.2381,-1.2392,-1.2374,-1.2401,-1.2401,-1.2395,-1.239,-1.24,-1.2401,-1.2405,-1.2401,-1.2376,-1.2375,-1.2374,-1.2374,0,-1.2501,-1.2476,-1.2503,-1.2483,-1.2479,-1.2502,-1.2485,-1.25,-1.2484,-1.2502,-1.2504,-1.248,-1.249,-1.2467,-1.2474,-1.2462,-1.2501,-1.2487,-1.2503,-1.25,-1.2537,-1.2535,-1.2653,-1.2668,-1.2546,-1.2547,-1.2548,0,-1.2557,-1.2577,-1.2559,-1.2566,-1.2561,-1.2572,-1.2575,-1.2544,-1.255,-1.2543,-1.2559,-1.2566,-1.2571,-1.259,-1.2573,-1.2578,-1.2567,-1.2607,-1.2567,-1.2576,-1.257,-1.2571,-1.2573,-1.2617,-1.2619,-1.262,-1.2621,0,-1.2661,-1.2648,-1.2654,-1.2656,-1.2661,-1.2661,-1.2659,-1.2666,-1.2633,-1.2641,-1.2651,-1.2654,-1.2661,-1.2669,-1.267,-1.2664,-1.2638,-1.2633,-1.2641,-1.2653,-1.2663,-1.2661,-1.2529,-1.2631,-1.263,-1.2629,-1.2629,-1.2628,-1.2742,-1.2758,-1.2747,-1.2755,-1.275,-1.2748,-1.2761,-1.2745,-1.2753,-1.2756,-1.2736,-1.2751,-1.2742,-1.2741,-1.2737,-1.2748,-1.273,-1.2742,-1.2745,-1.275,-1.2757,-1.2658,-1.2748,-1.2748,-1.2747,-1.2747,-1.2747,0,-1.2846,-1.2837,-1.2844,-1.2841,-1.2847,-1.2819,-1.2814,-1.2822,-1.2835,-1.2829,-1.2833,-1.2845,-1.2852,-1.2835,-1.284,-1.2852,-1.284,-1.2855,-1.2855,-1.2854,-1.2772,-1.2765,-1.2864,-1.2864,-1.2864,-1.2864,-1.2864,-1.2864,-1.2902,-1.2928,-1.2912,-1.2935,-1.2925,-1.2938,-1.2938,-1.2937,-1.2932,-1.2946,-1.2951,-1.2939,-1.2929,-1.2932,-1.2938,-1.2932,-1.2937,-1.2956,-1.2947,-1.2871,-1.286,-1.2849,-1.2843,-1.2957,-1.2957,-1.3029,-1.303,-1.3031]},{"header":{"parameterUnit":"m.s-1","parameterCategory":1,"la1":30.2991,"la2":30.254,"lo1":-89.0895,"lo2":-89.0444,"dy":0.0017,"dx":0.0017,"nx":28,"ny":28,"refTime":"2023-04-23T21:00:00:Z","depth":0,"parameterNumber":3,"parameterNumberName":"V-component_of_WINDS"},"data":[0,0,0,0,0,0,0,0,0,0,0,0,0,0,0,0,0,0,0,0,0,0,0,0,0,0,0,0,0,0,0,0,0,0,0,0,0,0,0,0,0,0,0,0,0,0,0,0,0,0,0,0,0,0,0,0,0,0,-2.4343,-2.4343,0,-2.4386,-2.4386,-2.4387,-2.4439,-2.444,-2.4441,-2.4441,-2.4482,-2.4482,-2.4482,0,0,0,0,0,0,0,0,0,0,0,0,0,-2.4301,-2.4302,-2.4343,-2.4343,-2.4344,-2.4385,-2.4386,-2.4387,-2.4439,-2.444,-2.4441,-2.4442,-2.4481,-2.4482,-2.4482,0,0,0,0,0,0,0,0,0,0,0,0,0,-2.4329,-2.4302,-2.4342,-2.4375,-2.4378,-2.4385,-2.4386,-2.4387,-2.4439,-2.444,-2.4441,-2.4442,-2.4481,-2.4482,-2.4482,-2.446,0,0,-2.4483,-2.4484,0,0,0,0,0,0,0,0,-2.4327,-2.4331,-2.437,-2.4373,-2.4376,-2.4408,-2.4386,-2.4411,-2.4438,-2.4416,-2.4441,-2.4443,-2.4456,-2.4458,-2.4464,-2.4462,-2.4463,-2.4484,-2.4484,-2.4484,-2.4484,0,0,0,0,0,0,0,-2.4325,-2.4329,-2.4359,-2.437,-2.4374,-2.4386,-2.4391,-2.4391,-2.4428,-2.4418,-2.4422,-2.4426,-2.4458,-2.4463,-2.4465,-2.4464,-2.4484,-2.4484,-2.4484,-2.4484,-2.4445,-2.4443,0,0,0,0,0,0,-2.4319,-2.4327,-2.4358,-2.4361,-2.4355,-2.4385,-2.4391,-2.4397,-2.4428,-2.4434,-2.4425,-2.4428,-2.4462,-2.4464,-2.4467,-2.4442,-2.4484,-2.4484,-2.4485,-2.4446,-2.4444,-2.4443,0,0,0,0,0,0,-2.4318,-2.4322,-2.4356,-2.4345,-2.435,-2.4385,-2.439,-2.4397,-2.4402,-2.4434,-2.444,-2.4424,-2.4463,-2.4466,-2.4461,-2.4444,-2.4485,-2.4485,-2.4448,-2.4445,-2.4444,-2.4393,0,0,0,0,0,0,-2.4317,-2.4321,-2.4314,-2.4345,-2.4351,-2.4351,-2.4389,-2.4397,-2.4403,-2.4408,-2.4434,-2.444,-2.4464,-2.446,-2.4462,-2.4445,-2.4485,-2.4449,-2.4447,-2.4444,-2.4396,-2.4389,-2.4384,0,0,0,0,0,-2.4315,-2.4297,-2.4313,-2.4317,-2.4343,-2.435,-2.4354,-2.4383,-2.4402,-2.4394,-2.4414,-2.4439,-2.4446,-2.4459,-2.4461,-2.4445,-2.445,-2.4447,-2.4444,-2.4399,-2.4391,-2.4384,0,0,0,0,0,0,-2.4263,-2.4302,-2.432,-2.4312,-2.4327,-2.4359,-2.4351,-2.4373,-2.4383,-2.4387,-2.4422,-2.4427,-2.4418,-2.4431,-2.4445,-2.4424,-2.4452,-2.4449,-2.4416,-2.4409,-2.4403,-2.4399,-2.4486,0,0,0,0,0,-2.425,-2.4254,-2.4288,-2.4277,-2.4284,-2.4316,-2.432,-2.4342,-2.4359,-2.4365,-2.4385,-2.4399,-2.4405,-2.4407,-2.4414,-2.4398,-2.4404,-2.4388,-2.4382,-2.4376,-2.4373,-2.4365,-2.4358,-2.4433,-2.4433,-2.4433,0,0,-2.4224,-2.4246,-2.4247,-2.4267,-2.4282,-2.4284,-2.4321,-2.4322,-2.4323,-2.4365,-2.4362,-2.4377,-2.4395,-2.4384,-2.438,-2.4395,-2.4354,-2.4372,-2.4368,-2.4368,-2.4361,-2.4354,-2.4347,-2.4431,-2.4432,-2.4432,0,0,-2.4178,-2.4196,-2.4189,-2.4203,-2.4225,-2.4246,-2.4244,-2.4272,-2.4284,-2.4281,-2.4312,-2.4314,-2.4322,-2.4334,-2.4341,-2.4298,-2.4321,-2.4299,-2.4266,-2.4257,-2.4251,-2.4246,-2.423,-2.4224,-2.4296,-2.4296,-2.4296,0,-2.4143,-2.4149,-2.4182,-2.4181,-2.4188,-2.4227,-2.4219,-2.423,-2.4252,-2.4256,-2.4272,-2.4283,-2.4298,-2.4291,-2.428,-2.4285,-2.4282,-2.4296,-2.425,-2.4245,-2.4241,-2.4226,-2.422,-2.4293,-2.4294,-2.4294,-2.4294,0,-2.4104,-2.4107,-2.4099,-2.4121,-2.4127,-2.4122,-2.4153,-2.4155,-2.4175,-2.4194,-2.419,-2.421,-2.4221,-2.422,-2.424,-2.4215,-2.4223,-2.4244,-2.4272,-2.423,-2.4216,-2.4211,-2.4289,-2.429,-2.4291,-2.4292,0,0,-2.4027,-2.4067,-2.4063,-2.4073,-2.4099,-2.4102,-2.4098,-2.411,-2.4111,-2.4124,-2.4121,-2.4127,-2.4147,-2.4154,-2.4175,-2.4168,-2.4131,-2.4189,-2.419,-2.4177,-2.4104,-2.4087,-2.408,-2.4147,-2.4146,-2.4145,-2.4102,0,-2.3985,-2.3983,-2.4012,-2.4001,-2.4003,-2.4039,-2.4036,-2.4051,-2.4068,-2.4071,-2.409,-2.4093,-2.4119,-2.4124,-2.4118,-2.4137,-2.4117,-2.414,-2.4143,-2.4142,-2.4137,-2.4073,-2.4057,-2.4015,-2.4097,-2.4096,-2.4095,0,-2.3937,-2.3949,-2.3938,-2.3965,-2.3967,-2.3964,-2.3976,-2.3979,-2.3996,-2.4009,-2.4018,-2.4042,-2.4038,-2.4065,-2.406,-2.4075,-2.4078,-2.4087,-2.4086,-2.4087,-2.4116,-2.4072,-2.4003,-2.3996,-2.4087,-2.4088,-2.4089,0,-2.3881,-2.3894,-2.3889,-2.3897,-2.3928,-2.3924,-2.3936,-2.3955,-2.396,-2.397,-2.3973,-2.3983,-2.3987,-2.3993,-2.4019,-2.4036,-2.401,-2.4039,-2.402,-2.4019,-2.4012,-2.4012,-2.3942,-2.4015,-2.4015,-2.4015,-2.4015,0,-2.3831,-2.3823,-2.3865,-2.3862,-2.3853,-2.3885,-2.3875,-2.3891,-2.3907,-2.3906,-2.3938,-2.3936,-2.397,-2.3972,-2.3991,-2.3983,-2.3986,-2.3995,-2.4,-2.3992,-2.399,-2.3994,-2.3997,-2.4013,-2.4013,-2.4014,-2.4014,0,-2.3767,-2.3795,-2.3792,-2.3821,-2.3828,-2.382,-2.3845,-2.3842,-2.3861,-2.386,-2.3862,-2.3891,-2.3894,-2.392,-2.393,-2.3943,-2.3927,-2.3938,-2.3922,-2.3925,-2.3904,-2.3905,-2.3832,-2.3824,-2.3902,-2.3902,-2.3901,0,-2.3734,-2.3729,-2.3757,-2.376,-2.3771,-2.3774,-2.378,-2.3811,-2.3815,-2.3833,-2.3828,-2.3834,-2.3841,-2.3845,-2.3866,-2.3873,-2.3884,-2.3858,-2.3885,-2.3877,-2.3882,-2.3882,-2.3881,-2.3852,-2.3851,-2.385,-2.3849,0,-2.3671,-2.3685,-2.3692,-2.3703,-2.3709,-2.3719,-2.3731,-2.3731,-2.3765,-2.3767,-2.3772,-2.3777,-2.3787,-2.3792,-2.3802,-2.3814,-2.3836,-2.3841,-2.3836,-2.3828,-2.3818,-2.3822,-2.3905,-2.3842,-2.3843,-2.3843,-2.3844,-2.3844,-2.3621,-2.3617,-2.3637,-2.3643,-2.3656,-2.3666,-2.3665,-2.3684,-2.3689,-2.37,-2.3717,-2.3719,-2.3735,-2.3751,-2.3761,-2.3761,-2.3775,-2.3769,-2.3767,-2.3765,-2.376,-2.3818,-2.3763,-2.3764,-2.3764,-2.3764,-2.3764,0,-2.3559,-2.3573,-2.3579,-2.3595,-2.36,-2.3622,-2.3636,-2.3638,-2.3639,-2.3653,-2.3659,-2.3663,-2.3669,-2.369,-2.3697,-2.3693,-2.3704,-2.3694,-2.3694,-2.3696,-2.3748,-2.3751,-2.3685,-2.3685,-2.3685,-2.3686,-2.3686,-2.3686,-2.3528,-2.3523,-2.3538,-2.3539,-2.3554,-2.3556,-2.3562,-2.3571,-2.3582,-2.3586,-2.3591,-2.3605,-2.3621,-2.363,-2.3635,-2.3641,-2.3641,-2.3628,-2.3637,-2.3685,-2.3693,-2.37,-2.3703,-2.3628,-2.3628,-2.3585,-2.3585,-2.3584]}]]